date,time,water_lv
2022-10-01,00:00:00,52.55
2022-10-01,00:10:00,52.54
2022-10-01,00:20:00,52.53
2022-10-01,00:30:00,52.52
2022-10-01,00:40:00,52.51
2022-10-01,00:50:00,52.5
2022-10-01,01:00:00,52.49
2022-10-01,01:10:00,52.48
2022-10-01,01:20:00,52.47
2022-10-01,01:30:00,52.46
2022-10-01,01:40:00,52.45
2022-10-01,01:50:00,52.44
2022-10-01,02:00:00,52.43
2022-10-01,02:10:00,52.42
2022-10-01,02:20:00,52.41
2022-10-01,02:30:00,52.4
2022-10-01,02:40:00,52.39
2022-10-01,02:50:00,52.39
2022-10-01,03:00:00,52.38
2022-10-01,03:10:00,-
2022-10-01,03:20:00,52.37
2022-10-01,03:30:00,52.36
2022-10-01,03:40:00,52.35
2022-10-01,03:50:00,52.35
2022-10-01,04:00:00,52.34
2022-10-01,04:10:00,52.33
2022-10-01,04:20:00,52.33
2022-10-01,04:30:00,52.33
2022-10-01,04:40:00,52.32
2022-10-01,04:50:00,52.31
2022-10-01,05:00:00,52.31
2022-10-01,05:10:00,52.3
2022-10-01,05:20:00,52.3
2022-10-01,05:30:00,52.29
2022-10-01,05:40:00,52.29
2022-10-01,05:50:00,52.29
2022-10-01,06:00:00,52.28
2022-10-01,06:10:00,52.28
2022-10-01,06:20:00,52.28
2022-10-01,06:30:00,52.27
2022-10-01,06:40:00,52.27
2022-10-01,06:50:00,52.27
2022-10-01,07:00:00,52.27
2022-10-01,07:10:00,52.27
2022-10-01,07:20:00,52.26
2022-10-01,07:30:00,52.26
2022-10-01,07:40:00,52.25
2022-10-01,07:50:00,52.25
2022-10-01,08:00:00,52.25
2022-10-01,08:10:00,52.25
2022-10-01,08:20:00,52.25
2022-10-01,08:30:00,52.24
2022-10-01,08:40:00,52.25
2022-10-01,08:50:00,52.24
2022-10-01,09:00:00,52.24
2022-10-01,09:10:00,52.25
2022-10-01,09:20:00,52.26
2022-10-01,09:30:00,52.27
2022-10-01,09:40:00,52.28
2022-10-01,09:50:00,52.3
2022-10-01,10:00:00,52.32
2022-10-01,10:10:00,52.33
2022-10-01,10:20:00,52.35
2022-10-01,10:30:00,52.37
2022-10-01,10:40:00,52.39
2022-10-01,10:50:00,52.41
2022-10-01,11:00:00,52.43
2022-10-01,11:10:00,52.45
2022-10-01,11:20:00,52.47
2022-10-01,11:30:00,52.49
2022-10-01,11:40:00,52.51
2022-10-01,11:50:00,52.53
2022-10-01,12:00:00,52.55
2022-10-01,12:10:00,52.57
2022-10-01,12:20:00,52.6
2022-10-01,12:30:00,52.62
2022-10-01,12:40:00,52.65
2022-10-01,12:50:00,52.68
2022-10-01,13:00:00,52.72
2022-10-01,13:10:00,-
2022-10-01,13:20:00,52.8
2022-10-01,13:30:00,52.83
2022-10-01,13:40:00,52.87
2022-10-01,13:50:00,52.91
2022-10-01,14:00:00,52.94
2022-10-01,14:10:00,52.98
2022-10-01,14:20:00,53.01
2022-10-01,14:30:00,53.05
2022-10-01,14:40:00,53.08
2022-10-01,14:50:00,53.12
2022-10-01,15:00:00,53.15
2022-10-01,15:10:00,53.19
2022-10-01,15:20:00,53.22
2022-10-01,15:30:00,53.26
2022-10-01,15:40:00,53.29
2022-10-01,15:50:00,53.33
2022-10-01,16:00:00,53.36
2022-10-01,16:10:00,53.4
2022-10-01,16:20:00,53.43
2022-10-01,16:30:00,53.47
2022-10-01,16:40:00,53.5
2022-10-01,16:50:00,53.54
2022-10-01,17:00:00,53.58
2022-10-01,17:10:00,53.61
2022-10-01,17:20:00,53.65
2022-10-01,17:30:00,53.69
2022-10-01,17:40:00,53.72
2022-10-01,17:50:00,53.76
2022-10-01,18:00:00,53.8
2022-10-01,18:10:00,53.83
2022-10-01,18:20:00,53.86
2022-10-01,18:30:00,53.9
2022-10-01,18:40:00,53.93
2022-10-01,18:50:00,53.96
2022-10-01,19:00:00,53.99
2022-10-01,19:10:00,54.02
2022-10-01,19:20:00,54.04
2022-10-01,19:30:00,54.07
2022-10-01,19:40:00,54.1
2022-10-01,19:50:00,54.13
2022-10-01,20:00:00,54.15
2022-10-01,20:10:00,54.18
2022-10-01,20:20:00,54.21
2022-10-01,20:30:00,54.23
2022-10-01,20:40:00,54.25
2022-10-01,20:50:00,54.28
2022-10-01,21:00:00,54.31
2022-10-01,21:10:00,54.34
2022-10-01,21:20:00,54.36
2022-10-01,21:30:00,54.4
2022-10-01,21:40:00,54.42
2022-10-01,21:50:00,54.45
2022-10-01,22:00:00,54.47
2022-10-01,22:10:00,54.5
2022-10-01,22:20:00,54.52
2022-10-01,22:30:00,54.54
2022-10-01,22:40:00,54.57
2022-10-01,22:50:00,54.6
2022-10-01,23:00:00,54.62
2022-10-01,23:10:00,54.64
2022-10-01,23:20:00,54.66
2022-10-01,23:30:00,54.68
2022-10-01,23:40:00,54.7
2022-10-01,23:50:00,54.72
2022-10-02,00:00:00,54.74
2022-10-02,00:10:00,54.76
2022-10-02,00:20:00,54.79
2022-10-02,00:30:00,54.82
2022-10-02,00:40:00,54.84
2022-10-02,00:50:00,54.86
2022-10-02,01:00:00,54.87
2022-10-02,01:10:00,54.9
2022-10-02,01:20:00,54.92
2022-10-02,01:30:00,54.94
2022-10-02,01:40:00,54.97
2022-10-02,01:50:00,54.98
2022-10-02,02:00:00,55
2022-10-02,02:10:00,55.02
2022-10-02,02:20:00,55.05
2022-10-02,02:30:00,55.07
2022-10-02,02:40:00,55.07
2022-10-02,02:50:00,55.1
2022-10-02,03:00:00,55.13
2022-10-02,03:10:00,55.14
2022-10-02,03:20:00,55.16
2022-10-02,03:30:00,55.18
2022-10-02,03:40:00,55.2
2022-10-02,03:50:00,55.22
2022-10-02,04:00:00,55.23
2022-10-02,04:10:00,55.26
2022-10-02,04:20:00,55.27
2022-10-02,04:30:00,55.29
2022-10-02,04:40:00,55.3
2022-10-02,04:50:00,55.32
2022-10-02,05:00:00,55.32
2022-10-02,05:10:00,55.35
2022-10-02,05:20:00,55.36
2022-10-02,05:30:00,55.38
2022-10-02,05:40:00,55.39
2022-10-02,05:50:00,55.4
2022-10-02,06:00:00,55.41
2022-10-02,06:10:00,55.43
2022-10-02,06:20:00,55.44
2022-10-02,06:30:00,55.46
2022-10-02,06:40:00,55.47
2022-10-02,06:50:00,55.49
2022-10-02,07:00:00,55.5
2022-10-02,07:10:00,55.51
2022-10-02,07:20:00,55.53
2022-10-02,07:30:00,55.54
2022-10-02,07:40:00,55.55
2022-10-02,07:50:00,55.56
2022-10-02,08:00:00,55.59
2022-10-02,08:10:00,55.6
2022-10-02,08:20:00,55.62
2022-10-02,08:30:00,55.64
2022-10-02,08:40:00,55.66
2022-10-02,08:50:00,55.68
2022-10-02,09:00:00,55.7
2022-10-02,09:10:00,55.73
2022-10-02,09:20:00,55.74
2022-10-02,09:30:00,55.77
2022-10-02,09:40:00,55.79
2022-10-02,09:50:00,55.82
2022-10-02,10:00:00,55.84
2022-10-02,10:10:00,55.86
2022-10-02,10:20:00,55.88
2022-10-02,10:30:00,55.91
2022-10-02,10:40:00,55.94
2022-10-02,10:50:00,55.97
2022-10-02,11:00:00,56
2022-10-02,11:10:00,56.03
2022-10-02,11:20:00,56.07
2022-10-02,11:30:00,56.1
2022-10-02,11:40:00,56.14
2022-10-02,11:50:00,56.18
2022-10-02,12:00:00,56.22
2022-10-02,12:10:00,56.25
2022-10-02,12:20:00,56.28
2022-10-02,12:30:00,56.32
2022-10-02,12:40:00,56.35
2022-10-02,12:50:00,56.39
2022-10-02,13:00:00,56.42
2022-10-02,13:10:00,56.44
2022-10-02,13:20:00,56.47
2022-10-02,13:30:00,56.5
2022-10-02,13:40:00,56.53
2022-10-02,13:50:00,56.55
2022-10-02,14:00:00,56.58
2022-10-02,14:10:00,56.61
2022-10-02,14:20:00,56.63
2022-10-02,14:30:00,56.66
2022-10-02,14:40:00,56.68
2022-10-02,14:50:00,56.71
2022-10-02,15:00:00,56.73
2022-10-02,15:10:00,56.75
2022-10-02,15:20:00,56.77
2022-10-02,15:30:00,56.8
2022-10-02,15:40:00,56.82
2022-10-02,15:50:00,56.84
2022-10-02,16:00:00,56.86
2022-10-02,16:10:00,56.89
2022-10-02,16:20:00,56.9
2022-10-02,16:30:00,56.92
2022-10-02,16:40:00,56.94
2022-10-02,16:50:00,56.97
2022-10-02,17:00:00,56.99
2022-10-02,17:10:00,57.01
2022-10-02,17:20:00,57.03
2022-10-02,17:30:00,57.05
2022-10-02,17:40:00,57.07
2022-10-02,17:50:00,57.09
2022-10-02,18:00:00,57.11
2022-10-02,18:10:00,57.13
2022-10-02,18:20:00,57.14
2022-10-02,18:30:00,57.17
2022-10-02,18:40:00,57.18
2022-10-02,18:50:00,57.2
2022-10-02,19:00:00,57.22
2022-10-02,19:10:00,57.24
2022-10-02,19:20:00,57.27
2022-10-02,19:30:00,57.29
2022-10-02,19:40:00,57.32
2022-10-02,19:50:00,57.34
2022-10-02,20:00:00,57.37
2022-10-02,20:10:00,57.4
2022-10-02,20:20:00,57.43
2022-10-02,20:30:00,57.45
2022-10-02,20:40:00,57.48
2022-10-02,20:50:00,57.5
2022-10-02,21:00:00,57.53
2022-10-02,21:10:00,57.55
2022-10-02,21:20:00,57.57
2022-10-02,21:30:00,57.59
2022-10-02,21:40:00,57.6
2022-10-02,21:50:00,57.62
2022-10-02,22:00:00,57.63
2022-10-02,22:10:00,57.64
2022-10-02,22:20:00,57.65
2022-10-02,22:30:00,57.67
2022-10-02,22:40:00,57.68
2022-10-02,22:50:00,57.69
2022-10-02,23:00:00,57.71
2022-10-02,23:10:00,57.72
2022-10-02,23:20:00,57.73
2022-10-02,23:30:00,57.74
2022-10-02,23:40:00,57.75
2022-10-02,23:50:00,57.76
2022-10-03,00:00:00,57.77
2022-10-03,00:10:00,57.77
2022-10-03,00:20:00,57.79
2022-10-03,00:30:00,57.79
2022-10-03,00:40:00,57.8
2022-10-03,00:50:00,57.81
2022-10-03,01:00:00,57.81
2022-10-03,01:10:00,57.82
2022-10-03,01:20:00,57.82
2022-10-03,01:30:00,57.83
2022-10-03,01:40:00,57.83
2022-10-03,01:50:00,57.84
2022-10-03,02:00:00,57.85
2022-10-03,02:10:00,57.84
2022-10-03,02:20:00,57.85
2022-10-03,02:30:00,57.85
2022-10-03,02:40:00,57.85
2022-10-03,02:50:00,57.85
2022-10-03,03:00:00,57.85
2022-10-03,03:10:00,57.85
2022-10-03,03:20:00,57.86
2022-10-03,03:30:00,57.85
2022-10-03,03:40:00,57.84
2022-10-03,03:50:00,57.84
2022-10-03,04:00:00,57.84
2022-10-03,04:10:00,57.84
2022-10-03,04:20:00,57.83
2022-10-03,04:30:00,57.83
2022-10-03,04:40:00,57.82
2022-10-03,04:50:00,57.82
2022-10-03,05:00:00,57.8
2022-10-03,05:10:00,57.8
2022-10-03,05:20:00,57.8
2022-10-03,05:30:00,57.8
2022-10-03,05:40:00,57.79
2022-10-03,05:50:00,57.79
2022-10-03,06:00:00,57.78
2022-10-03,06:10:00,57.78
2022-10-03,06:20:00,57.77
2022-10-03,06:30:00,57.77
2022-10-03,06:40:00,57.77
2022-10-03,06:50:00,57.77
2022-10-03,07:00:00,57.76
2022-10-03,07:10:00,57.75
2022-10-03,07:20:00,57.75
2022-10-03,07:30:00,57.75
2022-10-03,07:40:00,57.75
2022-10-03,07:50:00,57.75
2022-10-03,08:00:00,57.74
2022-10-03,08:10:00,57.74
2022-10-03,08:20:00,57.73
2022-10-03,08:30:00,57.73
2022-10-03,08:40:00,57.73
2022-10-03,08:50:00,57.72
2022-10-03,09:00:00,57.72
2022-10-03,09:10:00,57.71
2022-10-03,09:20:00,57.71
2022-10-03,09:30:00,57.7
2022-10-03,09:40:00,57.7
2022-10-03,09:50:00,57.7
2022-10-03,10:00:00,57.69
2022-10-03,10:10:00,57.69
2022-10-03,10:20:00,57.68
2022-10-03,10:30:00,57.68
2022-10-03,10:40:00,57.68
2022-10-03,10:50:00,57.67
2022-10-03,11:00:00,57.66
2022-10-03,11:10:00,57.65
2022-10-03,11:20:00,57.64
2022-10-03,11:30:00,57.64
2022-10-03,11:40:00,57.62
2022-10-03,11:50:00,57.6
2022-10-03,12:00:00,57.59
2022-10-03,12:10:00,57.58
2022-10-03,12:20:00,57.56
2022-10-03,12:30:00,57.55
2022-10-03,12:40:00,57.54
2022-10-03,12:50:00,57.53
2022-10-03,13:00:00,57.51
2022-10-03,13:10:00,57.5
2022-10-03,13:20:00,57.49
2022-10-03,13:30:00,57.48
2022-10-03,13:40:00,57.47
2022-10-03,13:50:00,57.46
2022-10-03,14:00:00,57.45
2022-10-03,14:10:00,57.43
2022-10-03,14:20:00,57.44
2022-10-03,14:30:00,57.43
2022-10-03,14:40:00,57.43
2022-10-03,14:50:00,57.43
2022-10-03,15:00:00,57.42
2022-10-03,15:10:00,57.41
2022-10-03,15:20:00,57.4
2022-10-03,15:30:00,57.39
2022-10-03,15:40:00,57.38
2022-10-03,15:50:00,57.37
2022-10-03,16:00:00,57.37
2022-10-03,16:10:00,57.36
2022-10-03,16:20:00,57.35
2022-10-03,16:30:00,57.35
2022-10-03,16:40:00,57.34
2022-10-03,16:50:00,57.33
2022-10-03,17:00:00,57.32
2022-10-03,17:10:00,57.32
2022-10-03,17:20:00,57.31
2022-10-03,17:30:00,57.3
2022-10-03,17:40:00,57.3
2022-10-03,17:50:00,57.3
2022-10-03,18:00:00,57.3
2022-10-03,18:10:00,57.29
2022-10-03,18:20:00,57.28
2022-10-03,18:30:00,57.28
2022-10-03,18:40:00,57.27
2022-10-03,18:50:00,57.27
2022-10-03,19:00:00,57.26
2022-10-03,19:10:00,57.25
2022-10-03,19:20:00,57.25
2022-10-03,19:30:00,57.25
2022-10-03,19:40:00,57.24
2022-10-03,19:50:00,57.24
2022-10-03,20:00:00,57.24
2022-10-03,20:10:00,57.23
2022-10-03,20:20:00,57.22
2022-10-03,20:30:00,57.22
2022-10-03,20:40:00,57.21
2022-10-03,20:50:00,57.21
2022-10-03,21:00:00,57.2
2022-10-03,21:10:00,57.2
2022-10-03,21:20:00,57.2
2022-10-03,21:30:00,57.19
2022-10-03,21:40:00,57.19
2022-10-03,21:50:00,57.19
2022-10-03,22:00:00,57.18
2022-10-03,22:10:00,57.17
2022-10-03,22:20:00,57.17
2022-10-03,22:30:00,57.17
2022-10-03,22:40:00,57.17
2022-10-03,22:50:00,57.16
2022-10-03,23:00:00,57.16
2022-10-03,23:10:00,57.15
2022-10-03,23:20:00,57.15
2022-10-03,23:30:00,57.15
2022-10-03,23:40:00,57.14
2022-10-03,23:50:00,57.14
2022-10-04,00:00:00,57.14
2022-10-04,00:10:00,57.13
2022-10-04,00:20:00,57.14
2022-10-04,00:30:00,57.13
2022-10-04,00:40:00,57.13
2022-10-04,00:50:00,57.12
2022-10-04,01:00:00,57.12
2022-10-04,01:10:00,57.12
2022-10-04,01:20:00,57.11
2022-10-04,01:30:00,57.11
2022-10-04,01:40:00,57.11
2022-10-04,01:50:00,57.11
2022-10-04,02:00:00,57.11
2022-10-04,02:10:00,57.1
2022-10-04,02:20:00,57.1
2022-10-04,02:30:00,57.1
2022-10-04,02:40:00,57.09
2022-10-04,02:50:00,57.08
2022-10-04,03:00:00,57.08
2022-10-04,03:10:00,57.07
2022-10-04,03:20:00,57.07
2022-10-04,03:30:00,57.07
2022-10-04,03:40:00,57.07
2022-10-04,03:50:00,57.06
2022-10-04,04:00:00,57.06
2022-10-04,04:10:00,57.05
2022-10-04,04:20:00,57.05
2022-10-04,04:30:00,57.05
2022-10-04,04:40:00,57.05
2022-10-04,04:50:00,57.04
2022-10-04,05:00:00,57.04
2022-10-04,05:10:00,57.04
2022-10-04,05:20:00,57.04
2022-10-04,05:30:00,57.03
2022-10-04,05:40:00,57.03
2022-10-04,05:50:00,57.03
2022-10-04,06:00:00,57.03
2022-10-04,06:10:00,57.02
2022-10-04,06:20:00,57.02
2022-10-04,06:30:00,57.02
2022-10-04,06:40:00,57.02
2022-10-04,06:50:00,57.01
2022-10-04,07:00:00,57.01
2022-10-04,07:10:00,57.01
2022-10-04,07:20:00,57.01
2022-10-04,07:30:00,57.01
2022-10-04,07:40:00,57.01
2022-10-04,07:50:00,57.01
2022-10-04,08:00:00,57.01
2022-10-04,08:10:00,57
2022-10-04,08:20:00,57
2022-10-04,08:30:00,57
2022-10-04,08:40:00,56.99
2022-10-04,08:50:00,56.99
2022-10-04,09:00:00,57
2022-10-04,09:10:00,56.99
2022-10-04,09:20:00,56.98
2022-10-04,09:30:00,56.99
2022-10-04,09:40:00,56.99
2022-10-04,09:50:00,56.99
2022-10-04,10:00:00,56.98
2022-10-04,10:10:00,56.98
2022-10-04,10:20:00,56.98
2022-10-04,10:30:00,56.99
2022-10-04,10:40:00,56.98
2022-10-04,10:50:00,56.99
2022-10-04,11:00:00,57
2022-10-04,11:10:00,56.99
2022-10-04,11:20:00,57
2022-10-04,11:30:00,56.99
2022-10-04,11:40:00,57
2022-10-04,11:50:00,57
2022-10-04,12:00:00,57
2022-10-04,12:10:00,57
2022-10-04,12:20:00,57
2022-10-04,12:30:00,56.99
2022-10-04,12:40:00,57
2022-10-04,12:50:00,57.01
2022-10-04,13:00:00,57
2022-10-04,13:10:00,57.01
2022-10-04,13:20:00,57.01
2022-10-04,13:30:00,57.01
2022-10-04,13:40:00,57.02
2022-10-04,13:50:00,57.02
2022-10-04,14:00:00,57.02
2022-10-04,14:10:00,57.02
2022-10-04,14:20:00,57.02
2022-10-04,14:30:00,57.02
2022-10-04,14:40:00,57.03
2022-10-04,14:50:00,57.04
2022-10-04,15:00:00,57.03
2022-10-04,15:10:00,57.04
2022-10-04,15:20:00,57.04
2022-10-04,15:30:00,57.04
2022-10-04,15:40:00,57.04
2022-10-04,15:50:00,57.05
2022-10-04,16:00:00,57.05
2022-10-04,16:10:00,57.05
2022-10-04,16:20:00,57.06
2022-10-04,16:30:00,57.05
2022-10-04,16:40:00,57.06
2022-10-04,16:50:00,57.06
2022-10-04,17:00:00,57.06
2022-10-04,17:10:00,57.06
2022-10-04,17:20:00,57.07
2022-10-04,17:30:00,57.07
2022-10-04,17:40:00,57.07
2022-10-04,17:50:00,57.07
2022-10-04,18:00:00,57.07
2022-10-04,18:10:00,57.07
2022-10-04,18:20:00,57.08
2022-10-04,18:30:00,57.08
2022-10-04,18:40:00,57.08
2022-10-04,18:50:00,57.08
2022-10-04,19:00:00,57.09
2022-10-04,19:10:00,57.09
2022-10-04,19:20:00,57.09
2022-10-04,19:30:00,57.09
2022-10-04,19:40:00,57.1
2022-10-04,19:50:00,57.1
2022-10-04,20:00:00,57.1
2022-10-04,20:10:00,57.1
2022-10-04,20:20:00,57.1
2022-10-04,20:30:00,57.11
2022-10-04,20:40:00,57.11
2022-10-04,20:50:00,57.1
2022-10-04,21:00:00,57.1
2022-10-04,21:10:00,57.1
2022-10-04,21:20:00,57.1
2022-10-04,21:30:00,57.09
2022-10-04,21:40:00,57.09
2022-10-04,21:50:00,57.09
2022-10-04,22:00:00,57.08
2022-10-04,22:10:00,57.07
2022-10-04,22:20:00,57.07
2022-10-04,22:30:00,57.07
2022-10-04,22:40:00,57.07
2022-10-04,22:50:00,57.06
2022-10-04,23:00:00,57.06
2022-10-04,23:10:00,57.06
2022-10-04,23:20:00,57.05
2022-10-04,23:30:00,57.05
2022-10-04,23:40:00,57.05
2022-10-04,23:50:00,57.05
2022-10-05,00:00:00,57.05
2022-10-05,00:10:00,57.05
2022-10-05,00:20:00,57.04
2022-10-05,00:30:00,57.05
2022-10-05,00:40:00,57.04
2022-10-05,00:50:00,57.05
2022-10-05,01:00:00,57.05
2022-10-05,01:10:00,57.05
2022-10-05,01:20:00,57.04
2022-10-05,01:30:00,57.05
2022-10-05,01:40:00,57.05
2022-10-05,01:50:00,57.05
2022-10-05,02:00:00,57.04
2022-10-05,02:10:00,57.05
2022-10-05,02:20:00,57.04
2022-10-05,02:30:00,57.04
2022-10-05,02:40:00,57.05
2022-10-05,02:50:00,57.05
2022-10-05,03:00:00,57.05
2022-10-05,03:10:00,57.05
2022-10-05,03:20:00,57.05
2022-10-05,03:30:00,57.04
2022-10-05,03:40:00,57.05
2022-10-05,03:50:00,57.05
2022-10-05,04:00:00,57.05
2022-10-05,04:10:00,57.05
2022-10-05,04:20:00,57.06
2022-10-05,04:30:00,57.06
2022-10-05,04:40:00,57.06
2022-10-05,04:50:00,57.07
2022-10-05,05:00:00,57.07
2022-10-05,05:10:00,57.08
2022-10-05,05:20:00,57.08
2022-10-05,05:30:00,57.08
2022-10-05,05:40:00,57.08
2022-10-05,05:50:00,57.08
2022-10-05,06:00:00,57.1
2022-10-05,06:10:00,57.1
2022-10-05,06:20:00,57.09
2022-10-05,06:30:00,57.1
2022-10-05,06:40:00,57.1
2022-10-05,06:50:00,57.11
2022-10-05,07:00:00,57.11
2022-10-05,07:10:00,57.11
2022-10-05,07:20:00,57.11
2022-10-05,07:30:00,57.11
2022-10-05,07:40:00,57.11
2022-10-05,07:50:00,57.12
2022-10-05,08:00:00,57.12
2022-10-05,08:10:00,57.12
2022-10-05,08:20:00,-
2022-10-05,08:30:00,57.12
2022-10-05,08:40:00,57.12
2022-10-05,08:50:00,57.12
2022-10-05,09:00:00,57.13
2022-10-05,09:10:00,57.13
2022-10-05,09:20:00,57.13
2022-10-05,09:30:00,57.13
2022-10-05,09:40:00,57.13
2022-10-05,09:50:00,57.13
2022-10-05,10:00:00,57.14
2022-10-05,10:10:00,57.14
2022-10-05,10:20:00,57.14
2022-10-05,10:30:00,57.14
2022-10-05,10:40:00,57.14
2022-10-05,10:50:00,57.15
2022-10-05,11:00:00,57.15
2022-10-05,11:10:00,57.15
2022-10-05,11:20:00,57.15
2022-10-05,11:30:00,57.15
2022-10-05,11:40:00,57.16
2022-10-05,11:50:00,57.16
2022-10-05,12:00:00,57.17
2022-10-05,12:10:00,57.17
2022-10-05,12:20:00,57.17
2022-10-05,12:30:00,57.17
2022-10-05,12:40:00,57.17
2022-10-05,12:50:00,57.18
2022-10-05,13:00:00,57.19
2022-10-05,13:10:00,57.19
2022-10-05,13:20:00,57.19
2022-10-05,13:30:00,57.19
2022-10-05,13:40:00,57.19
2022-10-05,13:50:00,57.19
2022-10-05,14:00:00,57.2
2022-10-05,14:10:00,57.2
2022-10-05,14:20:00,57.2
2022-10-05,14:30:00,57.2
2022-10-05,14:40:00,57.2
2022-10-05,14:50:00,57.2
2022-10-05,15:00:00,57.21
2022-10-05,15:10:00,57.22
2022-10-05,15:20:00,57.22
2022-10-05,15:30:00,57.22
2022-10-05,15:40:00,57.22
2022-10-05,15:50:00,57.22
2022-10-05,16:00:00,57.22
2022-10-05,16:10:00,57.23
2022-10-05,16:20:00,57.23
2022-10-05,16:30:00,57.22
2022-10-05,16:40:00,57.22
2022-10-05,16:50:00,57.22
2022-10-05,17:00:00,57.22
2022-10-05,17:10:00,57.22
2022-10-05,17:20:00,57.22
2022-10-05,17:30:00,57.21
2022-10-05,17:40:00,57.2
2022-10-05,17:50:00,57.2
2022-10-05,18:00:00,57.2
2022-10-05,18:10:00,57.2
2022-10-05,18:20:00,57.19
2022-10-05,18:30:00,57.19
2022-10-05,18:40:00,57.19
2022-10-05,18:50:00,57.18
2022-10-05,19:00:00,57.17
2022-10-05,19:10:00,57.18
2022-10-05,19:20:00,57.17
2022-10-05,19:30:00,57.17
2022-10-05,19:40:00,57.17
2022-10-05,19:50:00,57.17
2022-10-05,20:00:00,57.17
2022-10-05,20:10:00,57.17
2022-10-05,20:20:00,-
2022-10-05,20:30:00,57.17
2022-10-05,20:40:00,57.17
2022-10-05,20:50:00,57.16
2022-10-05,21:00:00,57.16
2022-10-05,21:10:00,57.15
2022-10-05,21:20:00,57.14
2022-10-05,21:30:00,57.13
2022-10-05,21:40:00,57.12
2022-10-05,21:50:00,57.12
2022-10-05,22:00:00,57.1
2022-10-05,22:10:00,-
2022-10-05,22:20:00,57.09
2022-10-05,22:30:00,57.08
2022-10-05,22:40:00,57.07
2022-10-05,22:50:00,57.06
2022-10-05,23:00:00,57.05
2022-10-05,23:10:00,57.04
2022-10-05,23:20:00,57.03
2022-10-05,23:30:00,57.02
2022-10-05,23:40:00,57.01
2022-10-05,23:50:00,57.01
2022-10-06,00:00:00,56.99
2022-10-06,00:10:00,56.98
2022-10-06,00:20:00,56.97
2022-10-06,00:30:00,56.96
2022-10-06,00:40:00,56.94
2022-10-06,00:50:00,56.93
2022-10-06,01:00:00,56.92
2022-10-06,01:10:00,56.92
2022-10-06,01:20:00,56.9
2022-10-06,01:30:00,-
2022-10-06,01:40:00,56.88
2022-10-06,01:50:00,56.87
2022-10-06,02:00:00,56.86
2022-10-06,02:10:00,56.85
2022-10-06,02:20:00,56.84
2022-10-06,02:30:00,56.83
2022-10-06,02:40:00,56.82
2022-10-06,02:50:00,56.82
2022-10-06,03:00:00,56.8
2022-10-06,03:10:00,56.79
2022-10-06,03:20:00,56.79
2022-10-06,03:30:00,56.78
2022-10-06,03:40:00,56.77
2022-10-06,03:50:00,56.76
2022-10-06,04:00:00,56.75
2022-10-06,04:10:00,56.74
2022-10-06,04:20:00,56.73
2022-10-06,04:30:00,56.73
2022-10-06,04:40:00,56.72
2022-10-06,04:50:00,56.7
2022-10-06,05:00:00,56.66
2022-10-06,05:10:00,56.65
2022-10-06,05:20:00,56.63
2022-10-06,05:30:00,56.61
2022-10-06,05:40:00,56.59
2022-10-06,05:50:00,56.57
2022-10-06,06:00:00,56.54
2022-10-06,06:10:00,56.52
2022-10-06,06:20:00,56.49
2022-10-06,06:30:00,56.48
2022-10-06,06:40:00,56.45
2022-10-06,06:50:00,56.44
2022-10-06,07:00:00,56.41
2022-10-06,07:10:00,56.4
2022-10-06,07:20:00,56.37
2022-10-06,07:30:00,56.36
2022-10-06,07:40:00,56.34
2022-10-06,07:50:00,56.33
2022-10-06,08:00:00,56.31
2022-10-06,08:10:00,56.31
2022-10-06,08:20:00,56.3
2022-10-06,08:30:00,56.28
2022-10-06,08:40:00,56.27
2022-10-06,08:50:00,56.25
2022-10-06,09:00:00,56.24
2022-10-06,09:10:00,56.22
2022-10-06,09:20:00,56.2
2022-10-06,09:30:00,56.19
2022-10-06,09:40:00,56.17
2022-10-06,09:50:00,56.16
2022-10-06,10:00:00,56.14
2022-10-06,10:10:00,56.12
2022-10-06,10:20:00,56.11
2022-10-06,10:30:00,56.09
2022-10-06,10:40:00,56.08
2022-10-06,10:50:00,56.06
2022-10-06,11:00:00,56.05
2022-10-06,11:10:00,56.04
2022-10-06,11:20:00,56.03
2022-10-06,11:30:00,56.01
2022-10-06,11:40:00,56
2022-10-06,11:50:00,55.99
2022-10-06,12:00:00,55.98
2022-10-06,12:10:00,55.96
2022-10-06,12:20:00,55.95
2022-10-06,12:30:00,55.94
2022-10-06,12:40:00,55.93
2022-10-06,12:50:00,55.92
2022-10-06,13:00:00,55.9
2022-10-06,13:10:00,55.9
2022-10-06,13:20:00,55.89
2022-10-06,13:30:00,55.87
2022-10-06,13:40:00,55.86
2022-10-06,13:50:00,55.86
2022-10-06,14:00:00,55.85
2022-10-06,14:10:00,55.85
2022-10-06,14:20:00,55.84
2022-10-06,14:30:00,55.83
2022-10-06,14:40:00,55.82
2022-10-06,14:50:00,55.81
2022-10-06,15:00:00,55.8
2022-10-06,15:10:00,55.79
2022-10-06,15:20:00,55.78
2022-10-06,15:30:00,55.78
2022-10-06,15:40:00,55.77
2022-10-06,15:50:00,55.76
2022-10-06,16:00:00,55.75
2022-10-06,16:10:00,55.74
2022-10-06,16:20:00,55.73
2022-10-06,16:30:00,55.72
2022-10-06,16:40:00,55.71
2022-10-06,16:50:00,55.7
2022-10-06,17:00:00,55.7
2022-10-06,17:10:00,55.69
2022-10-06,17:20:00,55.68
2022-10-06,17:30:00,55.67
2022-10-06,17:40:00,55.67
2022-10-06,17:50:00,55.66
2022-10-06,18:00:00,55.65
2022-10-06,18:10:00,55.65
2022-10-06,18:20:00,55.64
2022-10-06,18:30:00,55.63
2022-10-06,18:40:00,55.62
2022-10-06,18:50:00,55.61
2022-10-06,19:00:00,55.61
2022-10-06,19:10:00,55.6
2022-10-06,19:20:00,55.59
2022-10-06,19:30:00,55.59
2022-10-06,19:40:00,55.58
2022-10-06,19:50:00,55.57
2022-10-06,20:00:00,55.56
2022-10-06,20:10:00,55.55
2022-10-06,20:20:00,55.55
2022-10-06,20:30:00,55.54
2022-10-06,20:40:00,55.53
2022-10-06,20:50:00,55.52
2022-10-06,21:00:00,55.51
2022-10-06,21:10:00,55.5
2022-10-06,21:20:00,55.5
2022-10-06,21:30:00,55.49
2022-10-06,21:40:00,55.48
2022-10-06,21:50:00,55.47
2022-10-06,22:00:00,55.47
2022-10-06,22:10:00,-
2022-10-06,22:20:00,55.45
2022-10-06,22:30:00,55.44
2022-10-06,22:40:00,55.43
2022-10-06,22:50:00,55.42
2022-10-06,23:00:00,55.41
2022-10-06,23:10:00,55.4
2022-10-06,23:20:00,55.39
2022-10-06,23:30:00,55.37
2022-10-06,23:40:00,55.35
2022-10-06,23:50:00,55.33
2022-10-07,00:00:00,55.32
2022-10-07,00:10:00,55.3
2022-10-07,00:20:00,55.29
2022-10-07,00:30:00,55.27
2022-10-07,00:40:00,55.25
2022-10-07,00:50:00,55.24
2022-10-07,01:00:00,55.21
2022-10-07,01:10:00,55.2
2022-10-07,01:20:00,55.18
2022-10-07,01:30:00,55.17
2022-10-07,01:40:00,55.16
2022-10-07,01:50:00,55.14
2022-10-07,02:00:00,55.13
2022-10-07,02:10:00,55.12
2022-10-07,02:20:00,55.1
2022-10-07,02:30:00,55.09
2022-10-07,02:40:00,55.07
2022-10-07,02:50:00,55.06
2022-10-07,03:00:00,55.05
2022-10-07,03:10:00,55.04
2022-10-07,03:20:00,55.03
2022-10-07,03:30:00,55.01
2022-10-07,03:40:00,55
2022-10-07,03:50:00,54.98
2022-10-07,04:00:00,54.98
2022-10-07,04:10:00,54.97
2022-10-07,04:20:00,54.95
2022-10-07,04:30:00,54.94
2022-10-07,04:40:00,54.93
2022-10-07,04:50:00,54.93
2022-10-07,05:00:00,54.91
2022-10-07,05:10:00,54.9
2022-10-07,05:20:00,54.9
2022-10-07,05:30:00,54.88
2022-10-07,05:40:00,54.87
2022-10-07,05:50:00,54.86
2022-10-07,06:00:00,54.85
2022-10-07,06:10:00,54.84
2022-10-07,06:20:00,54.83
2022-10-07,06:30:00,54.82
2022-10-07,06:40:00,54.82
2022-10-07,06:50:00,54.8
2022-10-07,07:00:00,54.77
2022-10-07,07:10:00,54.75
2022-10-07,07:20:00,54.71
2022-10-07,07:30:00,54.68
2022-10-07,07:40:00,54.64
2022-10-07,07:50:00,54.6
2022-10-07,08:00:00,54.56
2022-10-07,08:10:00,54.53
2022-10-07,08:20:00,54.49
2022-10-07,08:30:00,54.45
2022-10-07,08:40:00,54.41
2022-10-07,08:50:00,54.37
2022-10-07,09:00:00,54.34
2022-10-07,09:10:00,54.3
2022-10-07,09:20:00,54.27
2022-10-07,09:30:00,54.24
2022-10-07,09:40:00,54.2
2022-10-07,09:50:00,54.17
2022-10-07,10:00:00,54.14
2022-10-07,10:10:00,54.11
2022-10-07,10:20:00,54.08
2022-10-07,10:30:00,54.05
2022-10-07,10:40:00,54.03